Location: Kaltenbach
(49.2000°N, 7.7500°E)
Time: 17:10:09
(UTC+00:00)

ATLAS CENTAUR R/B - Pass Details

Date: 24 January 2020
Orbit: 228 x 6376 km, 57.3° (Epoch: 25 February)

Event Time Altitude Azimuth Distance (km) Brightness Sun altitude
Rises 17:03:09 0° 252° (WSW) 3,022 8.1 -8.5°
Reaches altitude 10° 17:04:45 10° 256° (WSW) 2,421 6.8 -8.7°
Maximum altitude 17:10:19 68° 340° (NNW) 1,537 4.0 -9.6°
Enters shadow 17:25:13 12° 62° (ENE) 6,129 6.5 -11.9°
